User: anonymous   Login
Location: Unspecified
(0.0000°N, 0.0000°E)
Time: 22:15:16
(UTC+02:00)
Language:

Meteor PRIRODA - Orbit

View from above orbital plane
View from above orbital plane
View from above satellite
View from above satellite

Ground track
Ground track

The orbit data is extracted from the following two-line orbital elements,

1 12585U 81065A   16209.95862196 +.00000863 +00000-0 +43610-4 0  9990
2 12585 097.3916 188.9245 0016829 093.2934 328.4013 15.19581629907207
Epoch (UTC): 27 July 2016 23:00:24
Eccentricity: 0.0016829
inclination: 97.3916°
perigee height: 495 km
apogee height: 518 km
right ascension of ascending node: 188.9245°
argument of perigee: 93.2934°
revolutions per day: 15.19581629
mean anomaly at epoch: 328.4013°
orbit number at epoch: 90720

The dashed part of the orbit path shows where the satellite is in the earth's shadow,  

DLR